Location: Chicago
(41.8500°N, 87.6500°W)
Time: 13:34:47
(UTC-05:00)

Tiangong 2 - Visible Passes

Search period start: 21 May 2018 00:00
Search period end: 31 May 2018 00:00
Orbit: 382 x 385 km, 42.8° (Epoch: 21 May)

Date Brightness Start Highest point End Pass type
(mag) Time Alt. Az. Time Alt. Az. Time Alt. Az.
21 May 1.8 22:04:28 10° WSW 22:06:45 39° SSW 22:06:45 39° SSW visible
22 May 1.8 21:05:00 10° SW 21:07:50 32° SSE 21:10:42 10° E visible
22 May 2.5 22:41:15 10° W 22:43:05 31° W 22:43:05 31° W visible
23 May 0.9 21:41:29 10° WSW 21:44:38 75° SSE 21:46:39 20° E visible
23 May 3.8 23:18:14 10° W 23:18:52 15° W 23:18:52 15° W visible
24 May 1.3 20:41:48 10° SW 20:44:52 50° SSE 20:47:56 10° E visible
24 May 1.2 22:18:24 10° W 22:21:33 73° N 22:22:07 55° ENE visible
25 May 1.1 21:18:34 10° W 21:21:43 84° NNW 21:24:53 10° E visible
25 May 2.5 22:55:22 10° W 22:57:20 35° WNW 22:57:20 35° WNW visible
26 May 1.2 21:55:32 10° W 21:58:40 72° N 22:00:14 27° E visible
26 May 4.1 23:32:18 10° W 23:32:25 11° W 23:32:25 11° W visible
27 May 1.3 20:55:40 10° W 20:58:48 73° N 21:01:58 10° E visible
27 May 1.2 22:32:27 10° W 22:35:14 65° W 22:35:14 65° W visible
28 May 1.1 21:32:36 10° W 21:35:46 81° N 21:37:59 18° E visible
28 May 3.6 23:09:27 10° W 23:10:10 15° W 23:10:10 15° W visible
29 May 1.1 22:09:30 10° W 22:12:36 55° SSW 22:12:53 53° S visible
30 May 1.0 21:09:38 10° W 21:12:47 81° SSW 21:15:36 12° ESE visible
30 May 3.4 22:46:44 10° W 22:47:47 16° WSW 22:47:47 16° WSW visible
